Station Historical Data
Daily Summary for August 17, 2017 Units:  English    Metric   Both
« Previous Day
Next Day »
Daily Weekly Monthly Yearly Custom
  High: Low: Average:
Temperature: 85.0 °F 64.7 °F 73.4 °F
Dew Point: 63.0 °F 55.7 °F 59.3 °F
Humidity: 79 % 44 % 63 %
Wind Speed: 8.0 mph 0.0 mph 0.6 mph
Wind Gust: 10.0 mph - -
Wind:- - WSW
Pressure: 29.99 in 29.91 in -
Precipitation: 0.00 in    
Historical Graphs
 
 
Tabular Data for August 17, 2017
Time Temperature Dew Point Pressure Wind Wind Speed Wind Gust Humidity Rainfall Rate (Hourly) solar
00:01 66.5 °F 56.4 °F 29.94 in Calm     70 % 0.00 in 0.00 W/m2
00:06 66.4 °F 56.3 °F 29.94 in Calm     70 % 0.00 in 0.00 W/m2
00:11 66.3 °F 56.2 °F 29.94 in Calm     70 % 0.00 in 0.00 W/m2
00:17 66.3 °F 56.2 °F 29.94 in Calm     70 % 0.00 in 0.00 W/m2
00:21 66.2 °F 56.1 °F 29.94 in Calm     70 % 0.00 in 0.00 W/m2
00:27 66.1 °F 56.4 °F 29.94 in Calm     71 % 0.00 in 0.00 W/m2
00:32 65.9 °F 56.2 °F 29.94 in Calm     71 % 0.00 in 0.00 W/m2
00:37 65.9 °F 56.2 °F 29.94 in Calm     71 % 0.00 in 0.00 W/m2
00:42 65.9 °F 56.2 °F 29.94 in Calm     71 % 0.00 in 0.00 W/m2
00:47 65.9 °F 56.2 °F 29.94 in Calm     71 % 0.00 in 0.00 W/m2
00:52 65.9 °F 56.2 °F 29.94 in Calm     71 % 0.00 in 0.00 W/m2
00:57 66.0 °F 56.3 °F 29.94 in Calm     71 % 0.00 in 0.00 W/m2
01:02 65.9 °F 56.2 °F 29.94 in Calm     71 % 0.00 in 0.00 W/m2
01:07 65.9 °F 56.2 °F 29.94 in Calm     71 % 0.00 in 0.00 W/m2
01:12 65.9 °F 56.2 °F 29.94 in Calm     71 % 0.00 in 0.00 W/m2
01:17 65.9 °F 56.2 °F 29.94 in Calm     71 % 0.00 in 0.00 W/m2
01:22 65.8 °F 56.2 °F 29.94 in Calm     71 % 0.00 in 0.00 W/m2
01:27 65.9 °F 56.2 °F 29.94 in SW 2.0 mph 3.0 mph 71 % 0.00 in 0.00 W/m2
01:32 65.8 °F 56.5 °F 29.94 in Calm     72 % 0.00 in 0.00 W/m2
01:37 65.8 °F 56.5 °F 29.94 in Calm     72 % 0.00 in 0.00 W/m2
01:42 65.7 °F 56.4 °F 29.94 in Calm     72 % 0.00 in 0.00 W/m2
01:47 65.7 °F 56.4 °F 29.94 in Calm     72 % 0.00 in 0.00 W/m2
01:52 65.7 °F 56.4 °F 29.94 in Calm     72 % 0.00 in 0.00 W/m2
01:57 65.6 °F 56.3 °F 29.94 in Calm     72 % 0.00 in 0.00 W/m2
02:02 65.6 °F 56.3 °F 29.94 in Calm     72 % 0.00 in 0.00 W/m2
02:07 65.5 °F 56.2 °F 29.94 in Calm     72 % 0.00 in 0.00 W/m2
02:12 65.5 °F 56.2 °F 29.94 in Calm     72 % 0.00 in 0.00 W/m2
02:17 65.4 °F 56.2 °F 29.94 in Calm     72 % 0.00 in 0.00 W/m2
02:22 65.4 °F 56.5 °F 29.94 in Calm     73 % 0.00 in 0.00 W/m2
02:27 65.4 °F 56.2 °F 29.94 in Calm     72 % 0.00 in 0.00 W/m2
02:32 65.4 °F 56.5 °F 29.94 in Calm     73 % 0.00 in 0.00 W/m2
02:37 65.4 °F 56.2 °F 29.94 in Calm     72 % 0.00 in 0.00 W/m2
02:42 65.4 °F 56.2 °F 29.94 in Calm   1.0 mph 72 % 0.00 in 0.00 W/m2
02:48 65.4 °F 56.2 °F 29.94 in Calm     72 % 0.00 in 0.00 W/m2
02:53 65.3 °F 56.4 °F 29.94 in Calm     73 % 0.00 in 0.00 W/m2
02:58 65.3 °F 56.4 °F 29.94 in Calm     73 % 0.00 in 0.00 W/m2
03:03 65.3 °F 56.4 °F 29.94 in Calm     73 % 0.00 in 0.00 W/m2
03:08 65.3 °F 56.4 °F 29.94 in Calm     73 % 0.00 in 0.00 W/m2
03:13 65.3 °F 56.4 °F 29.94 in SSW 2.0 mph 2.0 mph 73 % 0.00 in 0.00 W/m2
03:18 65.3 °F 56.4 °F 29.94 in Calm   2.0 mph 73 % 0.00 in 0.00 W/m2
03:23 65.3 °F 56.4 °F 29.94 in Calm   3.0 mph 73 % 0.00 in 0.00 W/m2
03:28 65.2 °F 56.3 °F 29.94 in Calm   5.0 mph 73 % 0.00 in 0.00 W/m2
03:33 65.2 °F 56.3 °F 29.94 in SSE 5.0 mph 5.0 mph 73 % 0.00 in 0.00 W/m2
03:38 65.2 °F 56.3 °F 29.94 in Calm   7.0 mph 73 % 0.00 in 0.00 W/m2
03:43 65.2 °F 56.3 °F 29.94 in Calm   5.0 mph 73 % 0.00 in 0.00 W/m2
03:48 65.2 °F 56.7 °F 29.94 in Calm   1.0 mph 74 % 0.00 in 0.00 W/m2
03:53 65.1 °F 56.6 °F 29.94 in Calm   1.0 mph 74 % 0.00 in 0.00 W/m2
03:58 65.1 °F 56.6 °F 29.94 in Calm   5.0 mph 74 % 0.00 in 0.00 W/m2
04:03 65.1 °F 56.6 °F 29.94 in ESE 1.0 mph 5.0 mph 74 % 0.00 in 0.00 W/m2
04:08 65.1 °F 56.6 °F 29.94 in Calm   1.0 mph 74 % 0.00 in 0.00 W/m2
04:13 65.1 °F 56.6 °F 29.94 in Calm   7.0 mph 74 % 0.00 in 0.00 W/m2
04:18 65.1 °F 56.6 °F 29.94 in Calm     74 % 0.00 in 0.00 W/m2
04:23 65.1 °F 56.6 °F 29.94 in Calm   1.0 mph 74 % 0.00 in 0.00 W/m2
04:28 65.1 °F 56.6 °F 29.94 in Calm   5.0 mph 74 % 0.00 in 0.00 W/m2
04:33 65.1 °F 56.6 °F 29.94 in Calm   1.0 mph 74 % 0.00 in 0.00 W/m2
04:38 65.0 °F 56.5 °F 29.94 in Calm   7.0 mph 74 % 0.00 in 0.00 W/m2
04:43 65.0 °F 56.5 °F 29.94 in Calm   6.0 mph 74 % 0.00 in 0.00 W/m2
04:48 65.0 °F 56.5 °F 29.94 in East 2.0 mph 8.0 mph 74 % 0.00 in 0.00 W/m2
04:53 65.1 °F 56.6 °F 29.94 in Calm   7.0 mph 74 % 0.00 in 0.00 W/m2
04:58 65.0 °F 56.5 °F 29.94 in Calm   7.0 mph 74 % 0.00 in 0.00 W/m2
05:03 65.1 °F 56.6 °F 29.94 in Calm   7.0 mph 74 % 0.00 in 0.00 W/m2
05:08 65.1 °F 56.6 °F 29.94 in East 2.0 mph 6.0 mph 74 % 0.00 in 0.00 W/m2
05:13 65.1 °F 56.2 °F 29.94 in Calm     73 % 0.00 in 0.00 W/m2
05:18 65.1 °F 56.2 °F 29.94 in Calm     73 % 0.00 in 0.00 W/m2
05:23 65.1 °F 56.2 °F 29.94 in East 4.0 mph 5.0 mph 73 % 0.00 in 0.00 W/m2
05:28 65.1 °F 56.2 °F 29.95 in Calm   6.0 mph 73 % 0.00 in 0.00 W/m2
05:33 65.1 °F 56.2 °F 29.95 in Calm   5.0 mph 73 % 0.00 in 0.00 W/m2
05:38 65.1 °F 56.2 °F 29.95 in Calm   2.0 mph 73 % 0.00 in 0.00 W/m2
05:43 65.1 °F 55.9 °F 29.95 in Calm   5.0 mph 72 % 0.00 in 0.00 W/m2
05:48 65.1 °F 55.9 °F 29.95 in Calm   8.0 mph 72 % 0.00 in 0.00 W/m2
05:49 65.1 °F 55.9 °F 29.95 in Calm   8.0 mph 72 % 0.00 in 0.00 W/m2
05:54 65.1 °F 55.9 °F 29.95 in Calm   6.0 mph 72 % 0.00 in 0.00 W/m2
05:59 65.1 °F 55.9 °F 29.95 in Calm   6.0 mph 72 % 0.00 in 0.00 W/m2
06:04 65.1 °F 55.9 °F 29.95 in Calm   1.0 mph 72 % 0.00 in 0.00 W/m2
06:09 65.0 °F 55.8 °F 29.95 in Calm     72 % 0.00 in 0.00 W/m2
06:14 65.0 °F 55.8 °F 29.95 in Calm   1.0 mph 72 % 0.00 in 0.00 W/m2
06:19 65.0 °F 55.8 °F 29.95 in Calm     72 % 0.00 in 5.00 W/m2
06:24 65.0 °F 55.8 °F 29.96 in Calm   1.0 mph 72 % 0.00 in 7.00 W/m2
06:29 64.9 °F 55.7 °F 29.96 in Calm     72 % 0.00 in 11.00 W/m2
06:34 64.9 °F 55.7 °F 29.96 in Calm     72 % 0.00 in 14.00 W/m2
06:39 64.9 °F 55.7 °F 29.96 in Calm     72 % 0.00 in 19.00 W/m2
06:44 64.9 °F 55.7 °F 29.96 in Calm     72 % 0.00 in 23.00 W/m2
06:49 64.9 °F 55.7 °F 29.96 in Calm     72 % 0.00 in 28.00 W/m2
06:54 64.9 °F 55.7 °F 29.96 in East 4.0 mph 5.0 mph 72 % 0.00 in 39.00 W/m2
06:59 64.9 °F 56.0 °F 29.96 in Calm   1.0 mph 73 % 0.00 in 49.00 W/m2
07:04 64.8 °F 56.0 °F 29.97 in Calm     73 % 0.00 in 58.00 W/m2
07:09 64.8 °F 56.0 °F 29.96 in Calm     73 % 0.00 in 72.00 W/m2
07:14 64.8 °F 56.3 °F 29.97 in Calm     74 % 0.00 in 84.00 W/m2
07:19 64.8 °F 56.3 °F 29.97 in Calm     74 % 0.00 in 100.00 W/m2
07:24 64.7 °F 56.2 °F 29.97 in Calm     74 % 0.00 in 118.00 W/m2
07:29 64.7 °F 56.6 °F 29.97 in Calm     75 % 0.00 in 134.00 W/m2
07:34 64.7 °F 56.6 °F 29.97 in Calm     75 % 0.00 in 151.00 W/m2
07:39 64.7 °F 57.0 °F 29.97 in Calm     76 % 0.00 in 167.00 W/m2
07:44 64.7 °F 57.0 °F 29.97 in Calm     76 % 0.00 in 186.00 W/m2
07:49 64.7 °F 57.0 °F 29.97 in Calm     76 % 0.00 in 206.00 W/m2
07:54 64.8 °F 57.4 °F 29.97 in Calm     77 % 0.00 in 223.00 W/m2
07:59 64.9 °F 57.5 °F 29.97 in Calm     77 % 0.00 in 243.00 W/m2
08:04 65.1 °F 57.7 °F 29.97 in Calm     77 % 0.00 in 260.00 W/m2
08:09 65.3 °F 57.9 °F 29.97 in Calm     77 % 0.00 in 276.00 W/m2
08:14 65.4 °F 58.4 °F 29.97 in Calm     78 % 0.00 in 292.00 W/m2
08:20 65.6 °F 58.6 °F 29.97 in Calm     78 % 0.00 in 309.00 W/m2
08:25 65.8 °F 58.8 °F 29.97 in Calm     78 % 0.00 in 323.00 W/m2
08:30 66.1 °F 59.4 °F 29.97 in Calm     79 % 0.00 in 339.00 W/m2
08:35 66.3 °F 59.6 °F 29.97 in East 5.0 mph 5.0 mph 79 % 0.00 in 355.00 W/m2
08:40 66.5 °F 59.4 °F 29.97 in ENE 3.0 mph 7.0 mph 78 % 0.00 in 371.00 W/m2
08:45 66.7 °F 59.6 °F 29.97 in Calm   6.0 mph 78 % 0.00 in 387.00 W/m2
08:50 67.0 °F 59.6 °F 29.98 in Calm   4.0 mph 77 % 0.00 in 401.00 W/m2
08:55 67.5 °F 60.0 °F 29.98 in Calm   4.0 mph 77 % 0.00 in 418.00 W/m2
09:00 68.0 °F 60.2 °F 29.98 in Calm   5.0 mph 76 % 0.00 in 434.00 W/m2
09:05 68.6 °F 60.4 °F 29.98 in NNE 6.0 mph 7.0 mph 75 % 0.00 in 446.00 W/m2
09:10 69.0 °F 60.4 °F 29.98 in Calm   6.0 mph 74 % 0.00 in 462.00 W/m2
09:15 69.4 °F 60.4 °F 29.98 in Calm   5.0 mph 73 % 0.00 in 478.00 W/m2
09:20 69.7 °F 60.3 °F 29.97 in Calm   4.0 mph 72 % 0.00 in 492.00 W/m2
09:25 69.9 °F 60.5 °F 29.98 in Calm   3.0 mph 72 % 0.00 in 508.00 W/m2
09:30 70.2 °F 60.4 °F 29.98 in North 2.0 mph 7.0 mph 71 % 0.00 in 522.00 W/m2
09:35 70.4 °F 60.6 °F 29.98 in Calm     71 % 0.00 in 536.00 W/m2
09:40 70.6 °F 60.3 °F 29.98 in Calm   4.0 mph 70 % 0.00 in 548.00 W/m2
09:45 70.9 °F 60.6 °F 29.98 in North 1.0 mph 4.0 mph 70 % 0.00 in 561.00 W/m2
09:50 71.2 °F 60.9 °F 29.98 in NNW 4.0 mph 4.0 mph 70 % 0.00 in 577.00 W/m2
09:55 71.5 °F 60.8 °F 29.98 in Calm   3.0 mph 69 % 0.00 in 589.00 W/m2
10:00 71.8 °F 60.3 °F 29.98 in NNW 1.0 mph 3.0 mph 67 % 0.00 in 603.00 W/m2
10:05 72.1 °F 60.5 °F 29.98 in Calm     67 % 0.00 in 613.00 W/m2
10:10 72.3 °F 60.3 °F 29.98 in Calm   3.0 mph 66 % 0.00 in 629.00 W/m2
10:15 72.5 °F 60.5 °F 29.98 in Calm     66 % 0.00 in 640.00 W/m2
10:20 72.8 °F 60.8 °F 29.98 in Calm   1.0 mph 66 % 0.00 in 652.00 W/m2
10:25 73.0 °F 60.5 °F 29.98 in Calm   4.0 mph 65 % 0.00 in 664.00 W/m2
10:30 73.3 °F 60.8 °F 29.98 in Calm   2.0 mph 65 % 0.00 in 675.00 W/m2
10:35 73.5 °F 60.6 °F 29.98 in NNW 4.0 mph 5.0 mph 64 % 0.00 in 687.00 W/m2
10:40 73.9 °F 61.0 °F 29.98 in Calm   1.0 mph 64 % 0.00 in 698.00 W/m2
10:45 74.2 °F 61.7 °F 29.98 in Calm     65 % 0.00 in 708.00 W/m2
10:50 74.5 °F 62.0 °F 29.98 in Calm   4.0 mph 65 % 0.00 in 719.00 W/m2
10:55 74.8 °F 61.8 °F 29.98 in Calm   1.0 mph 64 % 0.00 in 729.00 W/m2
11:00 75.1 °F 62.1 °F 29.98 in NNW 5.0 mph 5.0 mph 64 % 0.00 in 733.00 W/m2
11:05 75.4 °F 61.9 °F 29.98 in NNW 2.0 mph 5.0 mph 63 % 0.00 in 747.00 W/m2
11:10 75.8 °F 62.3 °F 29.98 in Calm   3.0 mph 63 % 0.00 in 756.00 W/m2
11:15 76.2 °F 62.2 °F 29.98 in NW 2.0 mph 7.0 mph 62 % 0.00 in 765.00 W/m2
11:20 76.5 °F 62.1 °F 29.98 in Calm   3.0 mph 61 % 0.00 in 773.00 W/m2
11:25 77.0 °F 62.5 °F 29.98 in Calm   6.0 mph 61 % 0.00 in 777.00 W/m2
11:30 77.4 °F 62.4 °F 29.98 in NW 2.0 mph 4.0 mph 60 % 0.00 in 788.00 W/m2
11:35 77.5 °F 62.1 °F 29.98 in NW 1.0 mph 6.0 mph 59 % 0.00 in 793.00 W/m2
11:40 77.7 °F 61.8 °F 29.99 in Calm   4.0 mph 58 % 0.00 in 802.00 W/m2
11:45 77.9 °F 62.4 °F 29.99 in NW 2.0 mph 2.0 mph 59 % 0.00 in 803.00 W/m2
11:50 78.3 °F 62.3 °F 29.99 in WNW 1.0 mph 5.0 mph 58 % 0.00 in 812.00 W/m2
11:55 78.8 °F 62.3 °F 29.99 in Calm   1.0 mph 57 % 0.00 in 819.00 W/m2
12:00 79.1 °F 62.1 °F 29.99 in Calm   5.0 mph 56 % 0.00 in 824.00 W/m2
12:05 79.4 °F 62.3 °F 29.98 in Calm     56 % 0.00 in 830.00 W/m2
12:10 79.8 °F 62.2 °F 29.98 in Calm   5.0 mph 55 % 0.00 in 835.00 W/m2
12:15 80.2 °F 62.1 °F 29.98 in Calm   5.0 mph 54 % 0.00 in 840.00 W/m2
12:20 80.3 °F 61.6 °F 29.98 in West 5.0 mph 6.0 mph 53 % 0.00 in 842.00 W/m2
12:25 80.7 °F 62.0 °F 29.98 in West 5.0 mph 6.0 mph 53 % 0.00 in 846.00 W/m2
12:30 81.0 °F 62.8 °F 29.98 in Calm   6.0 mph 54 % 0.00 in 847.00 W/m2
12:35 81.2 °F 61.9 °F 29.98 in Calm   6.0 mph 52 % 0.00 in 847.00 W/m2
12:41 81.4 °F 62.1 °F 29.97 in West 2.0 mph 7.0 mph 52 % 0.00 in 849.00 W/m2
12:46 81.8 °F 63.0 °F 29.98 in Calm   5.0 mph 53 % 0.00 in 854.00 W/m2
12:51 82.0 °F 62.7 °F 29.97 in West 3.0 mph 6.0 mph 52 % 0.00 in 854.00 W/m2
12:56 82.4 °F 62.5 °F 29.97 in West 1.0 mph 7.0 mph 51 % 0.00 in 858.00 W/m2
13:01 82.9 °F 62.9 °F 29.97 in Calm   7.0 mph 51 % 0.00 in 860.00 W/m2
13:06 82.9 °F 62.4 °F 29.97 in West 3.0 mph 3.0 mph 50 % 0.00 in 856.00 W/m2
13:11 83.3 °F 62.2 °F 29.97 in Calm   8.0 mph 49 % 0.00 in 854.00 W/m2
13:16 83.4 °F 62.8 °F 29.97 in West 1.0 mph 5.0 mph 50 % 0.00 in 858.00 W/m2
13:21 83.4 °F 62.3 °F 29.97 in WSW 1.0 mph 6.0 mph 49 % 0.00 in 854.00 W/m2
13:26 83.6 °F 63.0 °F 29.97 in Calm   8.0 mph 50 % 0.00 in 851.00 W/m2
13:31 83.7 °F 62.5 °F 29.97 in Calm   6.0 mph 49 % 0.00 in 853.00 W/m2
13:36 84.0 °F 62.2 °F 29.97 in Calm   6.0 mph 48 % 0.00 in 851.00 W/m2
13:41 83.8 °F 62.6 °F 29.97 in West 1.0 mph 3.0 mph 49 % 0.00 in 847.00 W/m2
13:46 83.6 °F 62.4 °F 29.96 in Calm   1.0 mph 49 % 0.00 in 847.00 W/m2
13:51 83.6 °F 62.4 °F 29.96 in WSW 5.0 mph 6.0 mph 49 % 0.00 in 844.00 W/m2
13:56 83.6 °F 62.4 °F 29.96 in West 6.0 mph 6.0 mph 49 % 0.00 in 838.00 W/m2
14:01 83.6 °F 62.4 °F 29.96 in WNW 5.0 mph 6.0 mph 49 % 0.00 in 835.00 W/m2
14:06 83.6 °F 61.3 °F 29.96 in WNW 3.0 mph 4.0 mph 47 % 0.00 in 831.00 W/m2
14:10 83.9 °F 60.9 °F 29.96 in Calm   4.0 mph 46 % 0.00 in 828.00 W/m2
14:15 84.3 °F 61.3 °F 29.96 in Calm   3.0 mph 46 % 0.00 in 824.00 W/m2
14:20 84.6 °F 62.2 °F 29.95 in Calm   4.0 mph 47 % 0.00 in 817.00 W/m2
14:25 84.5 °F 62.1 °F 29.95 in WNW 4.0 mph 4.0 mph 47 % 0.00 in 812.00 W/m2
14:30 84.1 °F 61.7 °F 29.95 in Calm   6.0 mph 47 % 0.00 in 805.00 W/m2
14:35 84.0 °F 61.6 °F 29.95 in WNW 1.0 mph 3.0 mph 47 % 0.00 in 796.00 W/m2
14:40 84.1 °F 61.7 °F 29.95 in West 6.0 mph 7.0 mph 47 % 0.00 in 793.00 W/m2
14:46 84.3 °F 61.3 °F 29.95 in Calm   7.0 mph 46 % 0.00 in 784.00 W/m2
14:51 84.6 °F 62.2 °F 29.95 in Calm   6.0 mph 47 % 0.00 in 779.00 W/m2
14:56 84.7 °F 61.7 °F 29.95 in West 2.0 mph 8.0 mph 46 % 0.00 in 772.00 W/m2
15:01 84.7 °F 61.7 °F 29.95 in West 8.0 mph 8.0 mph 46 % 0.00 in 761.00 W/m2
15:06 84.9 °F 61.8 °F 29.95 in Calm   10.0 mph 46 % 0.00 in 751.00 W/m2
15:11 84.8 °F 61.7 °F 29.94 in West 2.0 mph 2.0 mph 46 % 0.00 in 740.00 W/m2
15:16 84.5 °F 61.5 °F 29.94 in West 5.0 mph 8.0 mph 46 % 0.00 in 733.00 W/m2
15:21 84.4 °F 60.8 °F 29.94 in West 2.0 mph 8.0 mph 45 % 0.00 in 722.00 W/m2
15:31 84.4 °F 61.4 °F 29.94 in Calm   1.0 mph 46 % 0.00 in 703.00 W/m2
15:36 84.4 °F 61.4 °F 29.94 in Calm     46 % 0.00 in 691.00 W/m2
15:41 84.5 °F 60.8 °F 29.94 in Calm     45 % 0.00 in 680.00 W/m2
15:46 84.5 °F 61.5 °F 29.93 in Calm     46 % 0.00 in 671.00 W/m2
15:51 84.5 °F 60.8 °F 29.93 in Calm   1.0 mph 45 % 0.00 in 659.00 W/m2
15:56 84.5 °F 61.5 °F 29.94 in West 4.0 mph 4.0 mph 46 % 0.00 in 643.00 W/m2
16:01 84.5 °F 60.8 °F 29.94 in West 5.0 mph 5.0 mph 45 % 0.00 in 631.00 W/m2
16:06 84.6 °F 60.9 °F 29.94 in West 4.0 mph 4.0 mph 45 % 0.00 in 622.00 W/m2
16:11 84.7 °F 61.0 °F 29.93 in West 4.0 mph 4.0 mph 45 % 0.00 in 608.00 W/m2
16:16 84.8 °F 61.1 °F 29.93 in WSW 3.0 mph 4.0 mph 45 % 0.00 in 596.00 W/m2
16:21 84.8 °F 61.1 °F 29.93 in West 2.0 mph 2.0 mph 45 % 0.00 in 582.00 W/m2
16:26 84.9 °F 61.2 °F 29.93 in Calm   2.0 mph 45 % 0.00 in 564.00 W/m2
16:31 85.0 °F 61.9 °F 29.92 in WSW 1.0 mph 3.0 mph 46 % 0.00 in 552.00 W/m2
16:36 85.0 °F 61.3 °F 29.93 in Calm   1.0 mph 45 % 0.00 in 540.00 W/m2
16:41 85.0 °F 60.7 °F 29.93 in Calm     44 % 0.00 in 526.00 W/m2
16:46 84.9 °F 61.2 °F 29.92 in WSW 3.0 mph 5.0 mph 45 % 0.00 in 510.00 W/m2
16:51 84.7 °F 61.0 °F 29.92 in Calm     45 % 0.00 in 497.00 W/m2
16:56 84.6 °F 60.9 °F 29.92 in Calm     45 % 0.00 in 485.00 W/m2
17:01 84.5 °F 61.5 °F 29.92 in Calm     46 % 0.00 in 468.00 W/m2
17:06 84.3 °F 60.0 °F 29.92 in Calm     44 % 0.00 in 454.00 W/m2
17:11 84.2 °F 60.6 °F 29.92 in West 1.0 mph 1.0 mph 45 % 0.00 in 436.00 W/m2
17:16 84.3 °F 60.7 °F 29.92 in West 2.0 mph 5.0 mph 45 % 0.00 in 422.00 W/m2
17:21 84.3 °F 60.0 °F 29.92 in Calm     44 % 0.00 in 408.00 W/m2
17:26 84.2 °F 61.2 °F 29.92 in Calm   3.0 mph 46 % 0.00 in 390.00 W/m2
17:31 84.1 °F 60.5 °F 29.92 in Calm     45 % 0.00 in 376.00 W/m2
17:36 83.9 °F 60.3 °F 29.92 in Calm     45 % 0.00 in 359.00 W/m2
17:41 83.7 °F 60.7 °F 29.92 in West 4.0 mph 4.0 mph 46 % 0.00 in 341.00 W/m2
17:46 83.6 °F 60.7 °F 29.92 in Calm   4.0 mph 46 % 0.00 in 327.00 W/m2
17:48 83.6 °F 60.7 °F 29.92 in Calm   4.0 mph 46 % 0.00 in 322.00 W/m2
17:53 83.5 °F 61.2 °F 29.91 in Calm   3.0 mph 47 % 0.00 in 309.00 W/m2
17:58 83.4 °F 61.7 °F 29.92 in Calm   1.0 mph 48 % 0.00 in 290.00 W/m2
18:03 83.3 °F 61.6 °F 29.92 in Calm   4.0 mph 48 % 0.00 in 274.00 W/m2
18:08 83.2 °F 62.1 °F 29.92 in WSW 4.0 mph 6.0 mph 49 % 0.00 in 258.00 W/m2
18:13 83.2 °F 61.5 °F 29.91 in WSW 2.0 mph 3.0 mph 48 % 0.00 in 243.00 W/m2
18:18 83.1 °F 62.0 °F 29.91 in Calm   1.0 mph 49 % 0.00 in 227.00 W/m2
18:23 82.9 °F 61.8 °F 29.91 in Calm     49 % 0.00 in 213.00 W/m2
18:28 82.8 °F 61.1 °F 29.92 in Calm     48 % 0.00 in 195.00 W/m2
18:33 82.7 °F 61.6 °F 29.92 in Calm     49 % 0.00 in 179.00 W/m2
18:38 82.5 °F 62.0 °F 29.92 in Calm   1.0 mph 50 % 0.00 in 165.00 W/m2
18:43 82.4 °F 61.9 °F 29.92 in Calm     50 % 0.00 in 148.00 W/m2
18:48 82.2 °F 61.7 °F 29.92 in Calm     50 % 0.00 in 130.00 W/m2
18:53 82.0 °F 61.5 °F 29.92 in Calm     50 % 0.00 in 111.00 W/m2
18:58 81.8 °F 61.9 °F 29.92 in Calm   1.0 mph 51 % 0.00 in 95.00 W/m2
19:03 81.5 °F 62.2 °F 29.92 in Calm     52 % 0.00 in 79.00 W/m2
19:08 81.2 °F 61.9 °F 29.92 in Calm     52 % 0.00 in 65.00 W/m2
19:13 80.7 °F 62.0 °F 29.92 in Calm     53 % 0.00 in 53.00 W/m2
19:18 80.4 °F 61.7 °F 29.92 in Calm   3.0 mph 53 % 0.00 in 44.00 W/m2
19:23 80.1 °F 62.0 °F 29.92 in Calm     54 % 0.00 in 33.00 W/m2
19:28 79.6 °F 62.0 °F 29.92 in Calm     55 % 0.00 in 26.00 W/m2
19:33 79.3 °F 61.8 °F 29.92 in Calm   1.0 mph 55 % 0.00 in 21.00 W/m2
19:38 78.9 °F 61.9 °F 29.92 in Calm     56 % 0.00 in 16.00 W/m2
19:43 78.5 °F 61.5 °F 29.92 in Calm     56 % 0.00 in 14.00 W/m2
19:48 78.1 °F 61.1 °F 29.92 in Calm     56 % 0.00 in 11.00 W/m2
19:53 77.8 °F 61.4 °F 29.92 in Calm     57 % 0.00 in 7.00 W/m2
19:58 77.3 °F 60.9 °F 29.93 in Calm     57 % 0.00 in 5.00 W/m2
20:03 76.7 °F 60.8 °F 29.92 in Calm     58 % 0.00 in 0.00 W/m2
20:08 76.1 °F 60.8 °F 29.93 in Calm     59 % 0.00 in 0.00 W/m2
20:14 75.4 °F 60.1 °F 29.93 in Calm     59 % 0.00 in 0.00 W/m2
20:21 74.8 °F 60.0 °F 29.93 in Calm     60 % 0.00 in 0.00 W/m2
20:22 74.7 °F 59.9 °F 29.93 in Calm     60 % 0.00 in 0.00 W/m2
20:23 74.7 °F 59.9 °F 29.93 in Calm     60 % 0.00 in 0.00 W/m2
20:26 74.4 °F 59.6 °F 29.93 in Calm     60 % 0.00 in 0.00 W/m2
20:31 74.1 °F 59.8 °F 29.93 in Calm     61 % 0.00 in 0.00 W/m2
20:36 73.8 °F 59.5 °F 29.93 in Calm     61 % 0.00 in 0.00 W/m2
20:41 73.6 °F 59.3 °F 29.93 in Calm     61 % 0.00 in 0.00 W/m2
20:46 73.4 °F 59.2 °F 29.93 in Calm     61 % 0.00 in 0.00 W/m2
20:51 73.3 °F 59.0 °F 29.93 in Calm     61 % 0.00 in 0.00 W/m2
20:56 73.1 °F 59.3 °F 29.93 in Calm     62 % 0.00 in 0.00 W/m2
21:01 73.0 °F 59.2 °F 29.93 in Calm     62 % 0.00 in 0.00 W/m2
21:06 72.9 °F 59.1 °F 29.94 in Calm     62 % 0.00 in 0.00 W/m2
21:11 72.7 °F 58.9 °F 29.94 in Calm     62 % 0.00 in 0.00 W/m2
21:16 72.5 °F 59.2 °F 29.94 in Calm     63 % 0.00 in 0.00 W/m2
21:21 72.4 °F 59.1 °F 29.94 in Calm     63 % 0.00 in 0.00 W/m2
21:26 72.4 °F 59.1 °F 29.94 in Calm     63 % 0.00 in 0.00 W/m2
21:31 72.4 °F 59.1 °F 29.94 in Calm     63 % 0.00 in 0.00 W/m2
21:33 72.3 °F 59.0 °F 29.94 in Calm     63 % 0.00 in 0.00 W/m2
21:38 72.1 °F 59.3 °F 29.94 in Calm     64 % 0.00 in 0.00 W/m2
21:43 71.9 °F 59.1 °F 29.94 in Calm     64 % 0.00 in 0.00 W/m2
21:48 71.8 °F 59.0 °F 29.94 in Calm     64 % 0.00 in 0.00 W/m2
21:53 71.8 °F 59.0 °F 29.94 in Calm     64 % 0.00 in 0.00 W/m2
21:58 71.8 °F 59.0 °F 29.94 in Calm     64 % 0.00 in 0.00 W/m2
22:03 71.7 °F 58.9 °F 29.94 in Calm     64 % 0.00 in 0.00 W/m2
22:08 71.6 °F 58.8 °F 29.94 in Calm     64 % 0.00 in 0.00 W/m2
22:13 71.5 °F 58.7 °F 29.94 in Calm     64 % 0.00 in 0.00 W/m2
22:18 71.5 °F 59.1 °F 29.94 in Calm     65 % 0.00 in 0.00 W/m2
22:19 71.5 °F 59.1 °F 29.94 in Calm     65 % 0.00 in 0.00 W/m2
22:24 71.5 °F 59.1 °F 29.94 in Calm     65 % 0.00 in 0.00 W/m2
22:29 71.5 °F 59.1 °F 29.94 in Calm     65 % 0.00 in 0.00 W/m2
22:34 71.3 °F 58.9 °F 29.94 in Calm     65 % 0.00 in 0.00 W/m2
22:39 71.2 °F 58.8 °F 29.95 in Calm     65 % 0.00 in 0.00 W/m2
22:44 71.1 °F 59.2 °F 29.94 in Calm     66 % 0.00 in 0.00 W/m2
22:49 71.0 °F 59.1 °F 29.94 in Calm     66 % 0.00 in 0.00 W/m2
22:54 70.9 °F 59.0 °F 29.94 in Calm     66 % 0.00 in 0.00 W/m2
22:59 70.9 °F 59.0 °F 29.94 in Calm     66 % 0.00 in 0.00 W/m2
23:04 70.8 °F 58.9 °F 29.94 in Calm     66 % 0.00 in 0.00 W/m2
23:09 70.7 °F 58.8 °F 29.94 in Calm     66 % 0.00 in 0.00 W/m2
23:14 70.6 °F 58.7 °F 29.94 in Calm     66 % 0.00 in 0.00 W/m2
23:19 70.6 °F 58.7 °F 29.94 in Calm     66 % 0.00 in 0.00 W/m2
23:24 70.5 °F 58.6 °F 29.94 in Calm     66 % 0.00 in 0.00 W/m2
23:29 70.5 °F 59.0 °F 29.94 in Calm     67 % 0.00 in 0.00 W/m2
23:34 70.4 °F 58.9 °F 29.94 in Calm     67 % 0.00 in 0.00 W/m2
23:39 70.4 °F 58.9 °F 29.94 in Calm     67 % 0.00 in 0.00 W/m2
23:44 70.3 °F 59.2 °F 29.94 in Calm     68 % 0.00 in 0.00 W/m2
23:49 70.3 °F 59.2 °F 29.94 in Calm     68 % 0.00 in 0.00 W/m2
23:54 70.3 °F 59.2 °F 29.94 in SW 4.0 mph 4.0 mph 68 % 0.00 in 0.00 W/m2
23:59 70.2 °F 59.2 °F 29.94 in South 1.0 mph 5.0 mph 68 % 0.00 in 0.00 W/m2
Juneau County Weather
Compliments of Weather Underground - 4.5 mb
 WU-history PHP script courtesy of   Juneau County Weather.
powered by Cumulus v1.9.3 (1059)
Ambient Weather VWS v14.00
Top Contact Website Map Copyright © 2007 - 2018 Foresthillweather.com Never base important decisions on this or any weather information obtained from the Internet